Weather in Karpylivka

Ukraine / Chernihiv Region     50°36′24″N   33°02′57″E
temp.,
°C
wind,
m/s
gust,
m/s
humid.,
%
clouds,
%
prec.,
mm/h
press.,
hPa
HPBL,
m
22 april, thu
thu2200:00+6ssw368572 0.0 101592
03:00+5ssw488654 0.0 1016131
06:00+5ssw47895 0.0 1017123
09:00+10ssw58705 0.0 1018372
12:00+15sw68535 0.0 10181537
15:00+15ssw685594 0.7 10171307
18:00+15ssw695583 0.0 1017678
21:00+12s6136598 0.0 1017403
23 april, fri
fri2300:00+11s6146889 0.0 1017420
03:00+10s6137654 0.1 1016375
06:00+9s51082100 0.0 1016387
09:00+11sw468099 0.4 1016602
12:00+11wsw4684100 0.4 1015749
15:00+6nw6988100 1.4 1016617
18:00+6nw3685100 0.9 1016672
21:00+5sw2387100 0.9 101652
24 april, sat
sat2400:00+4sw499497 0.0 1016221
03:00+4w41087100 0.1 1015270
06:00+2w49910 0.0 1015222
09:00+6wsw46704 0.0 1015647
12:00+6wsw898099 0.8 10151008
15:00+6w9116593 1.3 10151561
18:00+6wnw7127157 0.4 10171443
21:00+3w411772 0.5 1019282
25 april, sun
sun2500:00+1w410845 0.0 1019232
03:00+1wsw498738 0.0 1019187
06:000wsw49880 0.0 1019179
09:00+6wsw596222 0.0 1019658
12:00+7wsw7762100 0.1 10191360
15:00+6wsw697576 0.9 10181067
18:00+7w567199 0.2 1017964
21:00+3wsw348659 0.2 101851
26 april, mon
mon2600:00+2nw2385100 0.1 101842
03:00+1wnw338233 0.1 101836
06:000w33820 0.0 101850
09:00+5w34613 0.0 1017627
12:00+8wsw5649100 0.6 10161782
15:00+7w7864100 1.9 10161342
18:00+6wnw576788 1.3 10161190
21:00+2wnw37795 1.5 1017129